SCP
-0 -0 -0 -0 -0 -0 -0 -0 -0 -0 -0 -0 -0 0 0 0 0 0 0 0 0 0 0 0 0 0 0 0 0 0 0 0 0 0 0 0 0 0 0 0 0 0 0 0 0
-0 -0 -0 -0 -0 -0 -0 -0 -0 -0 -0 0 0 0 0 0 0 0 0 0 0 0 0 0 0 0 0 0 0 0 0 0 0 0 0 0 0 0 0 0 0 0 0 0 0
0 0 -0 -0 -0 -0 -0 -0 -0 0 0 0 0 0 0 0 0 0 0 0 0 0 0 0 0 0 0 0 0 0 0 0 0 0 0 0 0 0 0 0 0 0 0 0 0
0 0 -0 -0 -0 -0 -0 -0 0 -0 0 0 0 0 0 0 0 0 0 0 0 0 0 0 0 0 0 0 0 0 0 0 0 0 0 0 0 0 0 0 0 0 0 0 0
-0 0 0 0 0 0 0 0 -0 -0 -0 0 0 0 0 0 0 0 0 0 0 0 0 0 0 0 0 0 0 0 0 0 0 0 0 0 0 0 0 0 0 0 0 0 0
-0 -0 -0 -0 -0 -0 -0 -0 -0 -0 -0 0 0 0 0 0 0 0 0 0 0 0 0 0 0 0 0 0 0 0 0 0 0 0 0 0 0 0 0 0 0 0 0 0 0
-0 -0 -0 -0 -0 -0 -0 -0 -0 -0 -0 0 0 0 0 0 0 0 0 0 0 0 0 0 0 0 0 -0 0 0 0 0 -0 0 -0 0 0 0 0 0 0 0 0 0 0
-0 -0 -0 -0 -0 -0 -0 -0 -0 0 0 0 0 0 0 -0 0 0 0 0 0 0 0 0 0 0 -0 0 0 0 0 0 0 -0 -0 0 0 0 0 0 0 0 0 0 0
-0 -0 -0 -0 -0 -0 -0 -0 0 0 0 0 0 0 0 0 0 0 0 0 0 0 0 0 0 0 0 0 0 0 0 0 0 0 0 0 0 0 0 0 0 0 0 0 0
0 -0 -0 -0 -0 -0 -0 0 0 0 0 0 0 0 0 0 0 0 0 0 0 0 0 0 0 0 0 0 0 0 0 0 0 0 0 0 0 0 0 0 0 0 0 0 0
-0 -0 -0 -0 -0 -0 0 0 0 0 0 0 0 0 0 0 0 0 0 0 0 0 0 0 0 0 0 0 0 0 0 0 0 0 0 0 0 0 0 0 0 0 0 0 0
0 0 0 0 0 0 0 -0 -0 0 0 0 0 0 0 0 0 0 0 0 0 0 0 0 0 0 0 0 0 0 0 0 0 0 0 0 0 0 0 0 0 0 0 0 0
0 0 0 0 0 0 -0 -0 0 0 0 0 0 0 0 0 0 0 0 0 0 0 0 0 0 0 0 0 0 0 0 0 0 0 0 0 0 0 0 0 0 0 -0 -0 -0
0 0 0 0 0 -0 -0 -0 0 0 0 0 0 0 0 0 0 0 0 0 0 0 0 0 0 0 0 0 0 0 0 0 0 0 0 0 0 0 0 0 0 0 -0 -0 -0
0 0 0 0 0 0 0 0 0 0 0 0 0 0 0 0 0 0 0 0 0 0 0 0 0 0 0 0 0 0 0 0 0 0 0 0 0 0 0 0 0 -0 -0 -0 -0
0 0 0 0 0 0 0 0 0 0 0 0 0 0 0 0 0 0 0 0 0 0 0 0 0 0 0 0 0 0 0 0 0 0 0 0 0 0 0 0 0 -0 -0 0 0
0 0 0 0 0 0 0 0 0 0 0 0 0 0 0 0 0 0 0 0 0 0 0 0 0 0 0 0 0 0 -0 -0 0 0 0 0 0 0 0 0 0 -0 0 0 0
0 0 0 0 0 0 0 0 0 0 0 0 0 0 0 0 0 0 0 0 0 0 0 0 0 0 0 0 0 0 -0 0 0 0 0 0 0 0 0 0 0 0 0 0 0
0 0 0 0 0 0 0 0 0 0 0 0 0 0 0 0 0 0 0 0 0 0 0 0 0 0 0 0 0 0 0 0 0 0 0 0 0 0 0 0 0 0 0 0 0
0 0 0 0 0 0 0 0 0 0 0 0 0 0 0 0 0 0 0 0 0 0 0 0 0 0 0 0 0 0 0 0 0 0 0 0 0 0 0 -0 0 -0 0 0 -0
0 0 0 0 0 0 0 0 0 0 0 0 0 0 0 0 0 0 0 0 0 0 0 0 0 0 0 0 0 0 -0 0 0 0 0 0 0 0 0 0 0 0 0 -0 -0
0 0 0 0 0 0 0 0 0 0 0 0 0 0 0 0 0 0 0 0 0 0 0 0 0 0 0 0 0 0 0 0 0 0 0 0 0 0 0 0 0 0 -0 -0 0
0 0 0 0 0 0 0 0 0 0 0 0 0 0 0 0 0 0 0 0 0 0 0 0 0 0 0 0 0 0 0 0 0 0 0 0 0 0 0 0 0 0 0 0 0
0 0 0 0 0 0 0 0 0 0 0 0 0 0 0 0 0 0 0 0 0 0 0 0 0 0 0 0 0 0 0 0 0 0 0 0 0 0 0 0 0 0 0 0 0
0 0 0 0 0 0 0 0 0 0 0 0 0 0 0 0 0 0 0 0 0 0 0 0 0 0 0 0 0 0 0 0 0 0 0 0 0 0 0 0 0 0 0 0 0
0 0 0 0 0 0 0 0 0 0 0 0 0 0 0 0 0 0 0 0 0 0 0 0 0 0 0 0 0 0 0 0 0 0 0 0 0 0 0 0 0 0 0 0 0
0 0 0 0 0 0 0 0 0 0 0 0 0 0 0 0 0 0 0 0 0 0 0 0 0 0 0 0 0 0 -0 0 0 0 0 0 0 0 0 0 0 0 0 0 0
Wind_Speed_500mb
31 31 34 34 29 29 30 27 30 24 23 20 19 19 13 11 27 25 30 31 34 34 33 24 15 13 8 13 10 4 6 2 4 6 6 11 13 13 14 33 33 24 45 61 71
26 25 28 28 26 26 27 30 28 25 19 17 18 18 11 3 10 44 33 33 36 37 34 35 30 21 11 9 10 9 4 6 4 2 5 19 14 26 14 24 40 56 56 47 57
30 30 31 31 31 29 29 31 29 26 22 19 17 16 8 6 5 27 38 38 33 32 32 25 25 13 14 11 13 6 6 1 4 4 7 15 21 10 11 22 35 37 56 63 62
31 31 32 32 32 32 31 29 28 23 20 18 16 12 14 8 5 26 40 32 29 28 24 21 25 10 9 6 8 5 4 5 11 8 17 13 27 18 41 39 59 64 63 58 49
30 28 28 28 28 29 28 28 27 24 21 18 15 8 9 16 16 28 29 27 31 25 32 30 37 10 6 3 14 3 7 11 29 54 40 31 40 24 48 62 42 43 41 48 50
33 32 32 30 29 29 29 27 23 21 21 18 13 12 11 14 25 25 29 27 26 30 26 27 18 14 5 3 4 8 22 35 24 26 19 13 17 4 21 40 30 36 44 52 60
31 30 32 31 31 30 28 23 18 19 17 16 9 12 24 19 23 22 27 27 23 28 21 17 14 8 6 6 8 7 10 12 5 6 10 12 18 14 31 39 47 41 69 71 70
33 34 35 32 30 30 29 19 17 17 15 13 9 4 11 24 17 20 30 23 12 21 15 11 10 2 4 12 9 7 4 11 4 12 8 8 22 10 44 26 52 76 74 61 57
34 34 35 34 31 31 29 16 15 21 13 12 10 5 7 14 13 29 38 34 9 15 9 6 2 1 6 6 8 14 10 17 20 10 6 5 37 12 56 72 66 48 36 50 55
34 36 35 35 31 32 30 16 13 15 16 4 13 7 17 23 12 28 35 25 15 9 4 7 3 6 8 12 4 16 13 18 29 12 21 38 48 42 53 44 31 24 41 57 62
32 35 35 34 31 34 32 12 10 5 28 16 11 7 16 28 6 29 40 17 11 12 8 12 12 4 6 3 8 10 15 32 38 30 14 21 43 44 43 15 26 32 41 51 60
30 34 33 31 27 34 30 19 16 6 4 10 12 9 13 27 10 28 38 14 15 6 15 11 3 3 6 9 10 10 25 22 23 5 38 24 48 32 11 17 27 35 52 57 67
28 30 35 28 19 32 33 32 18 7 3 5 10 8 11 17 8 22 31 10 9 9 10 6 2 9 5 9 1 8 12 10 29 47 15 14 13 4 1 5 37 50 49 53 49
29 26 26 28 13 26 29 28 16 8 9 9 6 7 10 12 1 17 20 10 4 1 3 8 8 7 7 7 5 12 9 25 36 12 6 11 9 7 8 11 25 55 66 65 66
31 28 22 22 20 17 21 22 14 4 9 4 10 9 10 7 13 7 14 5 2 5 11 9 5 7 6 9 4 18 36 28 11 6 5 10 2 10 8 15 37 50 62 62 65
42 35 23 17 16 18 21 21 5 11 8 8 8 13 8 12 11 20 9 10 2 2 1 11 9 5 7 15 4 15 16 6 6 6 5 6 6 9 3 13 40 43 65 67 70
48 38 30 14 10 13 17 13 7 10 6 11 5 8 3 9 9 15 9 12 7 12 13 14 6 5 4 9 8 19 12 9 12 9 8 6 3 15 7 25 32 44 58 67 68
52 43 28 16 6 6 14 8 3 2 11 3 2 1 4 9 6 12 3 5 7 7 7 7 15 5 9 6 7 6 9 6 7 8 14 8 8 9 6 46 51 50 52 56 61
50 36 19 12 11 7 4 2 7 12 4 3 2 10 9 2 4 6 3 7 5 7 8 5 12 9 4 4 7 10 8 5 5 3 3 7 13 5 13 32 42 50 57 61 63
40 22 14 13 11 7 4 7 6 1 10 3 7 5 4 7 5 8 2 6 7 4 6 8 9 4 11 2 6 10 3 8 5 10 13 11 9 8 37 53 46 44 58 64 70
32 6 9 14 9 6 5 10 6 11 9 7 7 5 9 6 5 4 5 5 5 6 6 7 9 12 4 2 8 8 7 4 1 6 6 10 9 7 23 35 38 39 57 58 59
17 7 16 19 9 4 5 11 4 6 10 8 5 8 13 11 7 4 7 11 9 12 8 10 8 10 16 3 6 9 11 7 3 8 6 7 9 4 24 28 39 45 54 56 57
12 11 22 24 5 4 2 3 3 9 8 9 10 9 6 10 1 7 6 5 14 10 10 9 3 8 16 8 4 4 7 7 6 5 5 6 11 23 41 29 44 44 53 55 55
13 5 8 17 6 5 8 7 6 10 8 10 5 9 7 5 5 4 5 4 10 9 6 9 6 13 12 15 5 8 9 3 5 4 8 9 21 28 36 31 47 54 60 57 57
20 8 10 7 12 10 8 9 7 7 14 17 4 16 12 9 4 8 7 3 4 5 5 8 9 5 13 21 8 20 22 13 12 10 9 11 5 19 29 29 40 49 57 58 62
17 13 14 10 18 18 15 14 19 7 16 11 11 12 15 12 13 15 11 9 9 4 8 3 6 3 11 5 9 13 21 16 10 7 12 12 16 11 18 35 47 48 57 56 59
29 19 11 22 14 8 11 12 17 22 21 6 20 9 18 28 19 3 6 7 11 13 10 6 6 5 12 10 11 11 14 13 8 7 10 6 13 4 9 15 30 50 52 50 53
Wind_Direction_500mb
4 9 9 8 6 2 4 4 357 11 10 9 16 22 38 82 42 43 39 18 1 0 360 1 18 29 88 74 70 77 71 239 255 171 298 333 358 317 305 288 299 268 267 281 296
29 19 8 7 7 3 3 0 357 20 20 15 11 14 21 108 45 38 26 5 358 356 359 12 19 23 62 47 32 66 110 227 215 234 270 302 303 307 301 292 278 283 292 300 304
19 15 11 11 10 9 11 18 19 21 20 12 6 9 25 120 65 15 5 353 357 4 12 14 12 65 60 30 20 360 187 171 269 284 305 291 291 215 251 267 261 275 298 304 306
21 17 13 16 18 19 16 11 7 14 16 14 10 22 66 79 79 2 356 3 15 6 8 31 31 61 80 38 352 335 260 230 277 285 309 286 284 264 243 258 286 288 293 298 303
23 18 22 22 19 16 13 7 10 16 21 13 22 66 96 68 27 6 10 12 6 16 21 28 37 43 70 356 344 183 260 280 290 296 286 279 254 251 268 286 299 299 298 299 302
24 22 19 17 18 14 11 8 14 20 22 31 52 78 83 73 16 13 3 354 14 18 21 27 37 29 93 254 241 274 291 295 302 298 280 277 266 231 270 301 308 309 316 318 312
26 24 20 20 17 13 9 7 18 16 26 33 109 74 64 49 35 16 5 359 4 9 20 26 21 11 296 237 299 293 333 293 244 254 288 305 273 232 307 314 303 320 318 312 311
23 20 19 18 17 12 8 11 17 17 20 32 44 62 80 29 31 15 7 9 349 360 12 18 355 290 289 312 18 21 55 350 240 309 270 76 278 332 316 308 311 315 311 319 320
21 19 17 18 15 12 8 9 19 19 12 31 36 95 64 10 15 9 2 1 17 2 39 1 210 83 2 49 22 14 285 310 322 218 287 220 292 275 293 293 297 304 335 332 334
17 13 12 12 15 13 8 359 353 20 12 54 37 97 26 351 4 7 360 355 6 358 267 10 46 70 24 41 347 300 323 289 299 276 285 287 276 285 292 291 301 4 347 340 335
10 9 6 8 12 13 13 14 9 31 39 54 29 45 353 354 22 5 1 2 12 49 20 351 61 66 348 143 223 264 270 279 290 296 296 277 295 294 317 40 47 13 349 338 331
358 358 359 2 12 13 13 48 46 0 5 31 16 20 8 0 345 5 2 27 40 25 340 14 101 16 302 248 241 252 285 285 290 263 320 308 297 309 107 78 44 7 354 341 333
336 343 345 350 1 10 21 36 23 14 68 357 2 3 355 354 360 349 3 16 78 41 28 143 215 315 251 302 238 268 241 276 293 325 300 333 312 190 3 114 0 352 342 336 328
315 323 336 338 345 6 18 14 13 26 76 300 333 1 349 336 203 2 10 17 44 168 311 221 296 320 337 281 88 315 229 306 304 338 295 57 286 252 327 322 347 342 341 335 330
287 301 318 328 331 3 2 360 2 29 25 267 307 327 345 42 323 347 359 19 74 306 82 264 307 354 335 279 101 250 310 314 297 174 298 325 315 268 11 340 340 334 334 330 326
280 282 284 303 324 350 354 352 19 41 266 331 298 348 24 22 5 336 1 19 38 117 24 250 298 229 248 304 221 307 321 13 61 82 18 232 76 278 348 324 327 336 329 328 327
275 269 274 271 303 339 351 348 14 114 13 294 326 16 96 331 351 20 23 11 42 24 4 328 277 299 304 336 338 25 14 348 359 0 247 179 328 253 176 342 337 331 329 326 326
268 258 257 254 260 323 357 32 105 41 229 314 306 18 74 4 17 336 79 56 50 73 75 45 329 12 339 133 236 24 104 117 293 314 296 18 231 304 196 347 336 328 325 329 329
258 236 234 228 261 313 42 72 230 190 160 257 22 54 324 306 208 51 359 170 194 153 133 67 280 299 210 332 108 304 34 212 244 191 353 277 295 313 311 335 342 341 339 336 335
239 223 227 226 236 129 109 243 209 216 124 125 173 131 239 281 342 55 343 230 163 150 156 203 322 231 280 107 4 125 251 8 10 320 304 291 290 265 338 348 343 342 339 336 338
221 162 201 177 176 152 207 230 219 205 173 160 202 173 217 238 192 229 236 265 169 120 123 133 115 288 336 44 182 2 3 10 158 250 288 307 288 255 339 350 331 331 331 333 338
199 108 193 157 93 145 194 189 180 202 184 213 195 166 190 179 203 234 232 215 165 156 181 196 158 275 241 260 162 165 197 196 227 303 252 262 284 231 349 345 331 332 335 342 352
184 148 184 177 191 216 277 244 183 179 208 183 209 203 167 193 242 201 215 222 179 170 178 167 289 335 347 17 15 223 210 191 233 286 258 322 288 350 334 341 350 345 344 349 360
173 125 154 199 234 156 168 203 212 222 244 201 178 146 157 209 216 235 244 223 182 208 192 172 206 182 205 223 146 283 288 185 119 118 273 233 290 323 333 340 350 349 351 355 5
193 198 158 182 216 171 181 146 174 224 216 205 296 219 186 182 184 222 223 242 157 173 145 137 217 261 252 265 204 251 252 236 193 227 177 260 281 309 337 334 342 345 356 0 6
196 143 180 159 146 132 188 199 196 207 164 226 218 199 196 189 191 195 167 207 189 197 158 113 265 116 289 267 272 259 253 222 209 236 276 274 279 216 329 341 345 351 358 358 5
212 193 189 169 157 150 203 190 212 172 213 189 204 146 208 236 216 130 145 124 170 156 168 137 128 59 270 329 331 325 233 180 197 207 167 237 229 304 309 339 346 351 360 0 11
Wind_Speed_850mb
31 31 34 34 29 29 30 27 30 24 23 20 19 19 13 11 27 25 30 31 34 34 33 24 15 13 8 13 10 4 6 2 4 6 6 11 13 13 14 33 33 24 45 61 71
26 25 28 28 26 26 27 30 28 25 19 17 18 18 11 3 10 44 33 33 36 37 34 35 30 21 11 9 10 9 4 6 4 2 5 19 14 26 14 24 40 56 56 47 57
30 30 31 31 31 29 29 31 29 26 22 19 17 16 8 6 5 27 38 38 33 32 32 25 25 13 14 11 13 6 6 1 4 4 7 15 21 10 11 22 35 37 56 63 62
31 31 32 32 32 32 31 29 28 23 20 18 16 12 14 8 5 26 40 32 29 28 24 21 25 10 9 6 8 5 4 5 11 8 17 13 27 18 41 39 59 64 63 58 49
30 28 28 28 28 29 28 28 27 24 21 18 15 8 9 16 16 28 29 27 31 25 32 30 37 10 6 3 14 3 7 11 29 54 40 31 40 24 48 62 42 43 41 48 50
33 32 32 30 29 29 29 27 23 21 21 18 13 12 11 14 25 25 29 27 26 30 26 27 18 14 5 3 4 8 22 35 24 26 19 13 17 4 21 40 30 36 44 52 60
31 30 32 31 31 30 28 23 18 19 17 16 9 12 24 19 23 22 27 27 23 28 21 17 14 8 6 6 8 7 10 12 5 6 10 12 18 14 31 39 47 41 69 71 70
33 34 35 32 30 30 29 19 17 17 15 13 9 4 11 24 17 20 30 23 12 21 15 11 10 2 4 12 9 7 4 11 4 12 8 8 22 10 44 26 52 76 74 61 57
34 34 35 34 31 31 29 16 15 21 13 12 10 5 7 14 13 29 38 34 9 15 9 6 2 1 6 6 8 14 10 17 20 10 6 5 37 12 56 72 66 48 36 50 55
34 36 35 35 31 32 30 16 13 15 16 4 13 7 17 23 12 28 35 25 15 9 4 7 3 6 8 12 4 16 13 18 29 12 21 38 48 42 53 44 31 24 41 57 62
32 35 35 34 31 34 32 12 10 5 28 16 11 7 16 28 6 29 40 17 11 12 8 12 12 4 6 3 8 10 15 32 38 30 14 21 43 44 43 15 26 32 41 51 60
30 34 33 31 27 34 30 19 16 6 4 10 12 9 13 27 10 28 38 14 15 6 15 11 3 3 6 9 10 10 25 22 23 5 38 24 48 32 11 17 27 35 52 57 67
28 30 35 28 19 32 33 32 18 7 3 5 10 8 11 17 8 22 31 10 9 9 10 6 2 9 5 9 1 8 12 10 29 47 15 14 13 4 1 5 37 50 49 53 49
29 26 26 28 13 26 29 28 16 8 9 9 6 7 10 12 1 17 20 10 4 1 3 8 8 7 7 7 5 12 9 25 36 12 6 11 9 7 8 11 25 55 66 65 66
31 28 22 22 20 17 21 22 14 4 9 4 10 9 10 7 13 7 14 5 2 5 11 9 5 7 6 9 4 18 36 28 11 6 5 10 2 10 8 15 37 50 62 62 65
42 35 23 17 16 18 21 21 5 11 8 8 8 13 8 12 11 20 9 10 2 2 1 11 9 5 7 15 4 15 16 6 6 6 5 6 6 9 3 13 40 43 65 67 70
48 38 30 14 10 13 17 13 7 10 6 11 5 8 3 9 9 15 9 12 7 12 13 14 6 5 4 9 8 19 12 9 12 9 8 6 3 15 7 25 32 44 58 67 68
52 43 28 16 6 6 14 8 3 2 11 3 2 1 4 9 6 12 3 5 7 7 7 7 15 5 9 6 7 6 9 6 7 8 14 8 8 9 6 46 51 50 52 56 61
50 36 19 12 11 7 4 2 7 12 4 3 2 10 9 2 4 6 3 7 5 7 8 5 12 9 4 4 7 10 8 5 5 3 3 7 13 5 13 32 42 50 57 61 63
40 22 14 13 11 7 4 7 6 1 10 3 7 5 4 7 5 8 2 6 7 4 6 8 9 4 11 2 6 10 3 8 5 10 13 11 9 8 37 53 46 44 58 64 70
32 6 9 14 9 6 5 10 6 11 9 7 7 5 9 6 5 4 5 5 5 6 6 7 9 12 4 2 8 8 7 4 1 6 6 10 9 7 23 35 38 39 57 58 59
17 7 16 19 9 4 5 11 4 6 10 8 5 8 13 11 7 4 7 11 9 12 8 10 8 10 16 3 6 9 11 7 3 8 6 7 9 4 24 28 39 45 54 56 57
12 11 22 24 5 4 2 3 3 9 8 9 10 9 6 10 1 7 6 5 14 10 10 9 3 8 16 8 4 4 7 7 6 5 5 6 11 23 41 29 44 44 53 55 55
13 5 8 17 6 5 8 7 6 10 8 10 5 9 7 5 5 4 5 4 10 9 6 9 6 13 12 15 5 8 9 3 5 4 8 9 21 28 36 31 47 54 60 57 57
20 8 10 7 12 10 8 9 7 7 14 17 4 16 12 9 4 8 7 3 4 5 5 8 9 5 13 21 8 20 22 13 12 10 9 11 5 19 29 29 40 49 57 58 62
17 13 14 10 18 18 15 14 19 7 16 11 11 12 15 12 13 15 11 9 9 4 8 3 6 3 11 5 9 13 21 16 10 7 12 12 16 11 18 35 47 48 57 56 59
29 19 11 22 14 8 11 12 17 22 21 6 20 9 18 28 19 3 6 7 11 13 10 6 6 5 12 10 11 11 14 13 8 7 10 6 13 4 9 15 30 50 52 50 53
Wind_Direction_850mb
4 9 9 8 6 2 4 4 357 11 10 9 16 22 38 82 42 43 39 18 1 0 360 1 18 29 88 74 70 77 71 239 255 171 298 333 358 317 305 288 299 268 267 281 296
29 19 8 7 7 3 3 0 357 20 20 15 11 14 21 108 45 38 26 5 358 356 359 12 19 23 62 47 32 66 110 227 215 234 270 302 303 307 301 292 278 283 292 300 304
19 15 11 11 10 9 11 18 19 21 20 12 6 9 25 120 65 15 5 353 357 4 12 14 12 65 60 30 20 360 187 171 269 284 305 291 291 215 251 267 261 275 298 304 306
21 17 13 16 18 19 16 11 7 14 16 14 10 22 66 79 79 2 356 3 15 6 8 31 31 61 80 38 352 335 260 230 277 285 309 286 284 264 243 258 286 288 293 298 303
23 18 22 22 19 16 13 7 10 16 21 13 22 66 96 68 27 6 10 12 6 16 21 28 37 43 70 356 344 183 260 280 290 296 286 279 254 251 268 286 299 299 298 299 302
24 22 19 17 18 14 11 8 14 20 22 31 52 78 83 73 16 13 3 354 14 18 21 27 37 29 93 254 241 274 291 295 302 298 280 277 266 231 270 301 308 309 316 318 312
26 24 20 20 17 13 9 7 18 16 26 33 109 74 64 49 35 16 5 359 4 9 20 26 21 11 296 237 299 293 333 293 244 254 288 305 273 232 307 314 303 320 318 312 311
23 20 19 18 17 12 8 11 17 17 20 32 44 62 80 29 31 15 7 9 349 360 12 18 355 290 289 312 18 21 55 350 240 309 270 76 278 332 316 308 311 315 311 319 320
21 19 17 18 15 12 8 9 19 19 12 31 36 95 64 10 15 9 2 1 17 2 39 1 210 83 2 49 22 14 285 310 322 218 287 220 292 275 293 293 297 304 335 332 334
17 13 12 12 15 13 8 359 353 20 12 54 37 97 26 351 4 7 360 355 6 358 267 10 46 70 24 41 347 300 323 289 299 276 285 287 276 285 292 291 301 4 347 340 335
10 9 6 8 12 13 13 14 9 31 39 54 29 45 353 354 22 5 1 2 12 49 20 351 61 66 348 143 223 264 270 279 290 296 296 277 295 294 317 40 47 13 349 338 331
358 358 359 2 12 13 13 48 46 0 5 31 16 20 8 0 345 5 2 27 40 25 340 14 101 16 302 248 241 252 285 285 290 263 320 308 297 309 107 78 44 7 354 341 333
336 343 345 350 1 10 21 36 23 14 68 357 2 3 355 354 360 349 3 16 78 41 28 143 215 315 251 302 238 268 241 276 293 325 300 333 312 190 3 114 0 352 342 336 328
315 323 336 338 345 6 18 14 13 26 76 300 333 1 349 336 203 2 10 17 44 168 311 221 296 320 337 281 88 315 229 306 304 338 295 57 286 252 327 322 347 342 341 335 330
287 301 318 328 331 3 2 360 2 29 25 267 307 327 345 42 323 347 359 19 74 306 82 264 307 354 335 279 101 250 310 314 297 174 298 325 315 268 11 340 340 334 334 330 326
280 282 284 303 324 350 354 352 19 41 266 331 298 348 24 22 5 336 1 19 38 117 24 250 298 229 248 304 221 307 321 13 61 82 18 232 76 278 348 324 327 336 329 328 327
275 269 274 271 303 339 351 348 14 114 13 294 326 16 96 331 351 20 23 11 42 24 4 328 277 299 304 336 338 25 14 348 359 0 247 179 328 253 176 342 337 331 329 326 326
268 258 257 254 260 323 357 32 105 41 229 314 306 18 74 4 17 336 79 56 50 73 75 45 329 12 339 133 236 24 104 117 293 314 296 18 231 304 196 347 336 328 325 329 329
258 236 234 228 261 313 42 72 230 190 160 257 22 54 324 306 208 51 359 170 194 153 133 67 280 299 210 332 108 304 34 212 244 191 353 277 295 313 311 335 342 341 339 336 335
239 223 227 226 236 129 109 243 209 216 124 125 173 131 239 281 342 55 343 230 163 150 156 203 322 231 280 107 4 125 251 8 10 320 304 291 290 265 338 348 343 342 339 336 338
221 162 201 177 176 152 207 230 219 205 173 160 202 173 217 238 192 229 236 265 169 120 123 133 115 288 336 44 182 2 3 10 158 250 288 307 288 255 339 350 331 331 331 333 338
199 108 193 157 93 145 194 189 180 202 184 213 195 166 190 179 203 234 232 215 165 156 181 196 158 275 241 260 162 165 197 196 227 303 252 262 284 231 349 345 331 332 335 342 352
184 148 184 177 191 216 277 244 183 179 208 183 209 203 167 193 242 201 215 222 179 170 178 167 289 335 347 17 15 223 210 191 233 286 258 322 288 350 334 341 350 345 344 349 360
173 125 154 199 234 156 168 203 212 222 244 201 178 146 157 209 216 235 244 223 182 208 192 172 206 182 205 223 146 283 288 185 119 118 273 233 290 323 333 340 350 349 351 355 5
193 198 158 182 216 171 181 146 174 224 216 205 296 219 186 182 184 222 223 242 157 173 145 137 217 261 252 265 204 251 252 236 193 227 177 260 281 309 337 334 342 345 356 0 6
196 143 180 159 146 132 188 199 196 207 164 226 218 199 196 189 191 195 167 207 189 197 158 113 265 116 289 267 272 259 253 222 209 236 276 274 279 216 329 341 345 351 358 358 5
212 193 189 169 157 150 203 190 212 172 213 189 204 146 208 236 216 130 145 124 170 156 168 137 128 59 270 329 331 325 233 180 197 207 167 237 229 304 309 339 346 351 360 0 11